OPS 4682 DEB, 19964

Orbit data source: Space-Track

OPS 4682 DEB, 19964 is space debris in LEO originally from a launch on Sat, 03 Apr 1965 UTC launched from the Air Force Western Test Range (AFWTR). Debris objects in space refer to the collection of defunct objects orbiting the Earth. Examples of debris include non-operational satellites, rocket bodies, and fragments generated from explosions, collisions, or faulty payload assembly.

Loading next visibility...
Identifier
19964, 1965-027BA
Orbit
LEO
Country
Flag of USUS
Related business
Manufacturer
Unknown
Mission
Spacecraft
Bus & Motor
Unknown
Mass
Unknown
Launch date (UTC)
1965-04-03 (61 years ago)
Launch vehicle
Unknown
Launch site
Air Force Western Test Range (AFWTR)
Object type
Payload
Rocket body
Debris
Shape & HBR
Unknown shape, 0.1 m
Radar Cross Section
Small (<0.1 m²)

Expand to show TLE details & history
Last TLE update: 6 hours ago

TLE from 6 hours ago
0 OPS 4682 DEB
1 19964U 65027BA  26119.44709220  .00000855  00000-0  29393-2 0  9992
2 19964  90.2662  15.9338 0018582 314.2418 222.4628 12.97035679545742
Epoch: 2026-04-29T10:43Z
TLE epoch observation values (Epoch: 2026-04-29T10:43:48.766Z)
Latitude
3.34633°
Longitude
177.58817°
Altitude
1,286.734 km
Speed
7.208 km/s
True Right ascension
13h 03m 47s
True Declination
3° 19' 40"
Sunlit
Object was in full shadow at epoch
Visualization orbit readout
Latitude
Unknown
Longitude
Unknown
Altitude
Unknown
Speed
Unknown
Apparent Right ascension
Unknown
Apparent Declination
Unknown
Sunlit
N/A
Visualization observer readout
Local Sidereal Time
00:35:35
Azimuth
Unknown
Elevation
Unknown
Doppler factor
Unknown
Orbital elements
Apogee altitude
1,285.068 km
Perigee altitude
1,256.641 km
Semi-major axis
7,648.992 km
Eccentricity
0.00186
Inclination
90.2662°
RAAN
15.9338°
Arg. of periapsis
314.2418°
True anomaly
222.31929°
Mean anomaly
222.4628°
Eccentric anomaly
222.39102°
Mean motion
3.24442 °/min
Orbital period
110.96 mins
BSTAR
0.0029393
Loading maneuver chart data...
Computing Atmospheric mass density...
Loading historical data...
Loading historical data...
Loading historical data...
Loading historical data...
Loading historical data...
Loading historical data...
Loading historical data...

Documentation

Showing up to 5 results
|